Year,Month,Day,Hour,Minute,Value (Times are PST for temperature in C)
2016,06,04,00,00,17.90
2016,06,04,00,01,17.90
2016,06,04,00,02,17.90
2016,06,04,00,03,17.90
2016,06,04,00,04,17.90
2016,06,04,00,05,17.90
2016,06,04,00,06,17.90
2016,06,04,00,07,17.90
2016,06,04,00,08,17.90
2016,06,04,00,09,17.80
2016,06,04,00,10,17.80
2016,06,04,00,11,17.70
2016,06,04,00,12,17.60
2016,06,04,00,13,17.60
2016,06,04,00,14,17.60
2016,06,04,00,15,17.60
2016,06,04,00,16,17.50
2016,06,04,00,17,17.50
2016,06,04,00,18,17.50
2016,06,04,00,19,17.40
2016,06,04,00,20,17.40
2016,06,04,00,21,17.30
2016,06,04,00,22,17.20
2016,06,04,00,23,17.10
2016,06,04,00,24,17.10
2016,06,04,00,25,17.10
2016,06,04,00,26,17.00
2016,06,04,00,27,17.00
2016,06,04,00,28,17.00
2016,06,04,00,29,16.90
2016,06,04,00,30,16.80
2016,06,04,00,31,16.80
2016,06,04,00,32,16.70
2016,06,04,00,33,16.70
2016,06,04,00,34,16.60
2016,06,04,00,35,16.50
2016,06,04,00,36,16.50
2016,06,04,00,37,16.40
2016,06,04,00,38,16.40
2016,06,04,00,39,16.30
2016,06,04,00,40,16.30
2016,06,04,00,41,16.30
2016,06,04,00,42,16.30
2016,06,04,00,43,16.30
2016,06,04,00,44,16.40
2016,06,04,00,45,16.40
2016,06,04,00,46,16.40
2016,06,04,00,47,16.40
2016,06,04,00,48,16.40
2016,06,04,00,49,16.40
2016,06,04,00,50,16.40
2016,06,04,00,51,16.40
2016,06,04,00,52,16.40
2016,06,04,00,53,16.40
2016,06,04,00,54,16.40
2016,06,04,00,55,16.40
2016,06,04,00,56,16.40
2016,06,04,00,57,16.50
2016,06,04,00,58,16.50
2016,06,04,00,59,16.60
2016,06,04,01,00,16.60
2016,06,04,01,01,16.60
2016,06,04,01,02,16.70
2016,06,04,01,03,16.70
2016,06,04,01,04,16.80
2016,06,04,01,05,16.80
2016,06,04,01,06,16.80
2016,06,04,01,07,16.80
2016,06,04,01,08,16.80
2016,06,04,01,09,16.80
2016,06,04,01,10,16.70
2016,06,04,01,11,16.70
2016,06,04,01,12,16.60
2016,06,04,01,13,16.50
2016,06,04,01,14,16.40
2016,06,04,01,15,16.30
2016,06,04,01,16,16.30
2016,06,04,01,17,16.20
2016,06,04,01,18,16.20
2016,06,04,01,19,16.30
2016,06,04,01,20,16.30
2016,06,04,01,21,16.30
2016,06,04,01,22,16.30
2016,06,04,01,23,16.40
2016,06,04,01,24,16.40
2016,06,04,01,25,16.40
2016,06,04,01,26,16.40
2016,06,04,01,27,16.30
2016,06,04,01,28,16.30
2016,06,04,01,29,16.30
2016,06,04,01,30,16.30
2016,06,04,01,31,16.30
2016,06,04,01,32,16.30
2016,06,04,01,33,16.30
2016,06,04,01,34,16.30
2016,06,04,01,35,16.30
2016,06,04,01,36,16.30
2016,06,04,01,37,16.40
2016,06,04,01,38,16.40
2016,06,04,01,39,16.50
2016,06,04,01,40,16.60
2016,06,04,01,41,16.70
2016,06,04,01,42,16.80
2016,06,04,01,43,16.80
2016,06,04,01,44,16.90
2016,06,04,01,45,16.90
2016,06,04,01,46,16.90
2016,06,04,01,47,16.90
2016,06,04,01,48,16.90
2016,06,04,01,49,17.00
2016,06,04,01,50,17.00
2016,06,04,01,51,17.10
2016,06,04,01,52,17.10
2016,06,04,01,53,17.10
2016,06,04,01,54,17.20
2016,06,04,01,55,17.20
2016,06,04,01,56,17.20
2016,06,04,01,57,17.20
2016,06,04,01,58,17.20
2016,06,04,01,59,17.20
2016,06,04,02,00,17.20
2016,06,04,02,01,17.20
2016,06,04,02,02,17.20
2016,06,04,02,03,17.20
2016,06,04,02,04,17.20
2016,06,04,02,05,17.20
2016,06,04,02,06,17.20
2016,06,04,02,07,17.10
2016,06,04,02,08,17.10
2016,06,04,02,09,17.00
2016,06,04,02,10,17.00
2016,06,04,02,11,16.90
2016,06,04,02,12,17.00
2016,06,04,02,13,17.00
2016,06,04,02,14,17.00
2016,06,04,02,15,17.00
2016,06,04,02,16,17.10
2016,06,04,02,17,17.10
2016,06,04,02,18,17.10
2016,06,04,02,19,17.10
2016,06,04,02,20,17.20
2016,06,04,02,21,17.20
2016,06,04,02,22,17.20
2016,06,04,02,23,17.30
2016,06,04,02,24,17.30
2016,06,04,02,25,17.30
2016,06,04,02,26,17.30
2016,06,04,02,27,17.30
2016,06,04,02,28,17.30
2016,06,04,02,29,17.30
2016,06,04,02,30,17.30
2016,06,04,02,31,17.30
2016,06,04,02,32,17.30
2016,06,04,02,33,17.30
2016,06,04,02,34,17.30
2016,06,04,02,35,17.30
2016,06,04,02,36,17.30
2016,06,04,02,37,17.30
2016,06,04,02,38,17.20
2016,06,04,02,39,17.20
2016,06,04,02,40,17.20
2016,06,04,02,41,17.20
2016,06,04,02,42,17.10
2016,06,04,02,43,17.10
2016,06,04,02,44,17.10
2016,06,04,02,45,17.10
2016,06,04,02,46,17.10
2016,06,04,02,47,17.10
2016,06,04,02,48,17.00
2016,06,04,02,49,17.00
2016,06,04,02,50,17.10
2016,06,04,02,51,17.10
2016,06,04,02,52,17.10
2016,06,04,02,53,17.10
2016,06,04,02,54,17.10
2016,06,04,02,55,17.10
2016,06,04,02,56,17.10
2016,06,04,02,57,17.00
2016,06,04,02,58,17.00
2016,06,04,02,59,16.90
2016,06,04,03,00,16.90
2016,06,04,03,01,16.90
2016,06,04,03,02,16.90
2016,06,04,03,03,16.80
2016,06,04,03,04,16.80
2016,06,04,03,05,16.80
2016,06,04,03,06,16.80
2016,06,04,03,07,16.70
2016,06,04,03,08,16.70
2016,06,04,03,09,16.60
2016,06,04,03,10,16.60
2016,06,04,03,11,16.50
2016,06,04,03,12,16.40
2016,06,04,03,13,16.40
2016,06,04,03,14,16.30
2016,06,04,03,15,16.30
2016,06,04,03,16,16.20
2016,06,04,03,17,16.20
2016,06,04,03,18,16.20
2016,06,04,03,19,16.10
2016,06,04,03,20,16.00
2016,06,04,03,21,15.90
2016,06,04,03,22,15.80
2016,06,04,03,23,15.80
2016,06,04,03,24,15.70
2016,06,04,03,25,15.60
2016,06,04,03,26,15.50
2016,06,04,03,27,15.40
2016,06,04,03,28,15.30
2016,06,04,03,29,15.20
2016,06,04,03,30,15.00
2016,06,04,03,31,15.00
2016,06,04,03,32,15.00
2016,06,04,03,33,15.00
2016,06,04,03,34,14.90
2016,06,04,03,35,14.80
2016,06,04,03,36,14.80
2016,06,04,03,37,14.70
2016,06,04,03,38,14.70
2016,06,04,03,39,14.70
2016,06,04,03,40,14.70
2016,06,04,03,41,14.70
2016,06,04,03,42,14.70
2016,06,04,03,43,14.70
2016,06,04,03,44,14.70
2016,06,04,03,45,14.70
2016,06,04,03,46,14.70
2016,06,04,03,47,14.80
2016,06,04,03,48,14.80
2016,06,04,03,49,14.90
2016,06,04,03,50,15.00
2016,06,04,03,51,15.00
2016,06,04,03,52,15.00
2016,06,04,03,53,15.10
2016,06,04,03,54,15.20
2016,06,04,03,55,15.30
2016,06,04,03,56,15.40
2016,06,04,03,57,15.50
2016,06,04,03,58,15.50
2016,06,04,03,59,15.50
2016,06,04,04,00,15.60
2016,06,04,04,01,15.60
2016,06,04,04,02,15.60
2016,06,04,04,03,15.50
2016,06,04,04,04,15.40
2016,06,04,04,05,15.40
2016,06,04,04,06,15.30
2016,06,04,04,07,15.30
2016,06,04,04,08,15.20
2016,06,04,04,09,15.20
2016,06,04,04,10,15.10
2016,06,04,04,11,15.10
2016,06,04,04,12,15.00
2016,06,04,04,13,15.00
2016,06,04,04,14,15.00
2016,06,04,04,15,15.00
2016,06,04,04,16,15.00
2016,06,04,04,17,15.00
2016,06,04,04,18,15.00
2016,06,04,04,19,15.00
2016,06,04,04,20,14.90
2016,06,04,04,21,14.80
2016,06,04,04,22,14.80
2016,06,04,04,23,14.70
2016,06,04,04,24,14.70
2016,06,04,04,25,14.60
2016,06,04,04,26,14.60
2016,06,04,04,27,14.50
2016,06,04,04,28,14.50
2016,06,04,04,29,14.40
2016,06,04,04,30,14.40
2016,06,04,04,31,14.30
2016,06,04,04,32,14.30
2016,06,04,04,33,14.20
2016,06,04,04,34,14.20
2016,06,04,04,35,14.10
2016,06,04,04,36,14.10
2016,06,04,04,37,14.00
2016,06,04,04,38,14.00
2016,06,04,04,39,13.90
2016,06,04,04,40,13.90
2016,06,04,04,41,13.80
2016,06,04,04,42,13.80
2016,06,04,04,43,13.80
2016,06,04,04,44,13.70
2016,06,04,04,45,13.70
2016,06,04,04,46,13.60
2016,06,04,04,47,13.60
2016,06,04,04,48,13.60
2016,06,04,04,49,13.50
2016,06,04,04,50,13.50
2016,06,04,04,51,13.40
2016,06,04,04,52,13.40
2016,06,04,04,53,13.40
2016,06,04,04,54,13.30
2016,06,04,04,55,13.30
2016,06,04,04,56,13.30
2016,06,04,04,57,13.30
2016,06,04,04,58,13.30
2016,06,04,04,59,13.20
2016,06,04,05,00,13.20
2016,06,04,05,01,13.20
2016,06,04,05,02,13.20
2016,06,04,05,03,13.20
2016,06,04,05,04,13.30
2016,06,04,05,05,13.30
2016,06,04,05,06,13.30
2016,06,04,05,07,13.30
2016,06,04,05,08,13.20
2016,06,04,05,09,13.20
2016,06,04,05,10,13.20
2016,06,04,05,11,13.20
2016,06,04,05,12,13.20
2016,06,04,05,13,13.10
2016,06,04,05,14,13.10
2016,06,04,05,15,13.00
2016,06,04,05,16,13.00
2016,06,04,05,17,13.00
2016,06,04,05,18,12.90
2016,06,04,05,19,12.90
2016,06,04,05,20,12.90
2016,06,04,05,21,12.80
2016,06,04,05,22,12.80
2016,06,04,05,23,12.80
2016,06,04,05,24,12.80
2016,06,04,05,25,12.80
2016,06,04,05,26,12.70
2016,06,04,05,27,12.70
2016,06,04,05,28,12.70
2016,06,04,05,29,12.70
2016,06,04,05,30,12.70
2016,06,04,05,31,12.70
2016,06,04,05,32,12.70
2016,06,04,05,33,12.70
2016,06,04,05,34,12.70
2016,06,04,05,35,12.70
2016,06,04,05,36,12.70
2016,06,04,05,37,12.70
2016,06,04,05,38,12.70
2016,06,04,05,39,12.70
2016,06,04,05,40,12.70
2016,06,04,05,41,12.70
2016,06,04,05,42,12.70
2016,06,04,05,43,12.70
2016,06,04,05,44,12.70
2016,06,04,05,45,12.70
2016,06,04,05,46,12.70
2016,06,04,05,47,12.60
2016,06,04,05,48,12.60
2016,06,04,05,49,12.60
2016,06,04,05,50,12.60
2016,06,04,05,51,12.60
2016,06,04,05,52,12.60
2016,06,04,05,53,12.60
2016,06,04,05,54,12.60
2016,06,04,05,55,12.60
2016,06,04,05,56,12.60
2016,06,04,05,57,12.60
2016,06,04,05,58,12.60
2016,06,04,05,59,12.60
2016,06,04,06,00,12.60
2016,06,04,06,01,12.60
2016,06,04,06,02,12.60
2016,06,04,06,03,12.50
2016,06,04,06,04,12.50
2016,06,04,06,05,12.50
2016,06,04,06,06,12.50
2016,06,04,06,07,12.40
2016,06,04,06,08,12.40
2016,06,04,06,09,12.40
2016,06,04,06,10,12.40
2016,06,04,06,11,12.40
2016,06,04,06,12,12.40
2016,06,04,06,13,12.40
2016,06,04,06,14,12.40
2016,06,04,06,15,12.40
2016,06,04,06,16,12.40
2016,06,04,06,17,12.40
2016,06,04,06,18,12.40
2016,06,04,06,19,12.40
2016,06,04,06,20,12.40
2016,06,04,06,21,12.40
2016,06,04,06,22,12.40
2016,06,04,06,23,12.40
2016,06,04,06,24,12.40
2016,06,04,06,25,12.40
2016,06,04,06,26,12.40
2016,06,04,06,27,12.40
2016,06,04,06,28,12.40
2016,06,04,06,29,12.40
2016,06,04,06,30,12.40
2016,06,04,06,31,12.40
2016,06,04,06,32,12.50
2016,06,04,06,33,12.50
2016,06,04,06,34,12.60
2016,06,04,06,35,12.60
2016,06,04,06,36,12.60
2016,06,04,06,37,12.70
2016,06,04,06,38,12.70
2016,06,04,06,39,12.80
2016,06,04,06,40,12.90
2016,06,04,06,41,12.90
2016,06,04,06,42,13.00
2016,06,04,06,43,13.00
2016,06,04,06,44,13.10
2016,06,04,06,45,13.10
2016,06,04,06,46,13.20
2016,06,04,06,47,13.20
2016,06,04,06,48,13.20
2016,06,04,06,49,13.20
2016,06,04,06,50,13.30
2016,06,04,06,51,13.30
2016,06,04,06,52,13.30
2016,06,04,06,53,13.40
2016,06,04,06,54,13.40
2016,06,04,06,55,13.40
2016,06,04,06,56,13.50
2016,06,04,06,57,13.60
2016,06,04,06,58,13.70
2016,06,04,06,59,13.80
2016,06,04,07,00,13.90
2016,06,04,07,01,14.10
2016,06,04,07,02,14.20
2016,06,04,07,03,14.30
2016,06,04,07,04,14.40
2016,06,04,07,05,14.40
2016,06,04,07,06,14.50
2016,06,04,07,07,14.60
2016,06,04,07,08,14.60
2016,06,04,07,09,14.70
2016,06,04,07,10,14.80
2016,06,04,07,11,14.80
2016,06,04,07,12,14.90
2016,06,04,07,13,15.00
2016,06,04,07,14,15.00
2016,06,04,07,15,15.00
2016,06,04,07,16,15.00
2016,06,04,07,17,15.20
2016,06,04,07,18,15.30
2016,06,04,07,19,15.40
2016,06,04,07,20,15.50
2016,06,04,07,21,15.70
2016,06,04,07,22,15.80
2016,06,04,07,23,15.90
2016,06,04,07,24,16.00
2016,06,04,07,25,16.10
2016,06,04,07,26,16.20
2016,06,04,07,27,16.30
2016,06,04,07,28,16.50
2016,06,04,07,29,16.60
2016,06,04,07,30,16.70
2016,06,04,07,31,16.80
2016,06,04,07,32,17.00
2016,06,04,07,33,17.10
2016,06,04,07,34,17.20
2016,06,04,07,35,17.30
2016,06,04,07,36,17.50
2016,06,04,07,37,17.60
2016,06,04,07,38,17.70
2016,06,04,07,39,17.80
2016,06,04,07,40,18.00
2016,06,04,07,41,18.20
2016,06,04,07,42,18.20
2016,06,04,07,43,18.30
2016,06,04,07,44,18.40
2016,06,04,07,45,18.50
2016,06,04,07,46,18.60
2016,06,04,07,47,18.60
2016,06,04,07,48,18.70
2016,06,04,07,49,18.80
2016,06,04,07,50,18.80
2016,06,04,07,51,18.80
2016,06,04,07,52,18.90
2016,06,04,07,53,19.00
2016,06,04,07,54,19.10
2016,06,04,07,55,19.10
2016,06,04,07,56,19.20
2016,06,04,07,57,19.30
2016,06,04,07,58,19.40
2016,06,04,07,59,19.50
2016,06,04,08,00,19.60
2016,06,04,08,01,19.60
2016,06,04,08,02,19.70
2016,06,04,08,03,19.80
2016,06,04,08,04,19.80
2016,06,04,08,05,19.80
2016,06,04,08,06,19.90
2016,06,04,08,07,20.00
2016,06,04,08,08,20.00
2016,06,04,08,09,20.10
2016,06,04,08,10,20.20
2016,06,04,08,11,20.20
2016,06,04,08,12,20.20
2016,06,04,08,13,20.30
2016,06,04,08,14,20.30
2016,06,04,08,15,20.30
2016,06,04,08,16,20.30
2016,06,04,08,17,20.30
2016,06,04,08,18,20.30
2016,06,04,08,19,20.40
2016,06,04,08,20,20.50
2016,06,04,08,21,20.50
2016,06,04,08,22,20.60
2016,06,04,08,23,20.60
2016,06,04,08,24,20.70
2016,06,04,08,25,20.70
2016,06,04,08,26,20.70
2016,06,04,08,27,20.70
2016,06,04,08,28,20.80
2016,06,04,08,29,20.80
2016,06,04,08,30,20.90
2016,06,04,08,31,20.90
2016,06,04,08,32,21.00
2016,06,04,08,33,21.00
2016,06,04,08,34,21.10
2016,06,04,08,35,21.10
2016,06,04,08,36,21.10
2016,06,04,08,37,21.20
2016,06,04,08,38,21.20
2016,06,04,08,39,21.10
2016,06,04,08,40,21.10
2016,06,04,08,41,21.00
2016,06,04,08,42,21.00
2016,06,04,08,43,20.90
2016,06,04,08,44,20.90
2016,06,04,08,45,20.90
2016,06,04,08,46,20.90
2016,06,04,08,47,20.90
2016,06,04,08,48,20.90
2016,06,04,08,49,20.90
2016,06,04,08,50,20.90
2016,06,04,08,51,20.90
2016,06,04,08,52,20.90
2016,06,04,08,53,20.90
2016,06,04,08,54,20.90
2016,06,04,08,55,21.00
2016,06,04,08,56,21.10
2016,06,04,08,57,21.00
2016,06,04,08,58,21.10
2016,06,04,08,59,21.10
2016,06,04,09,00,21.10
2016,06,04,09,01,21.10
2016,06,04,09,02,21.10
2016,06,04,09,03,21.10
2016,06,04,09,04,21.10
2016,06,04,09,05,21.10
2016,06,04,09,06,21.10
2016,06,04,09,07,21.10
2016,06,04,09,08,21.10
2016,06,04,09,09,21.10
2016,06,04,09,10,21.10
2016,06,04,09,11,21.10
2016,06,04,09,12,21.20
2016,06,04,09,13,21.20
2016,06,04,09,14,21.20
2016,06,04,09,15,21.20
2016,06,04,09,16,21.20
2016,06,04,09,17,21.30
2016,06,04,09,18,21.30
2016,06,04,09,19,21.40
2016,06,04,09,20,21.40
2016,06,04,09,21,21.40
2016,06,04,09,22,21.40
2016,06,04,09,23,21.40
2016,06,04,09,24,21.40
2016,06,04,09,25,21.30
2016,06,04,09,26,21.30
2016,06,04,09,27,21.30
2016,06,04,09,28,21.30
2016,06,04,09,29,21.30
2016,06,04,09,30,21.30
2016,06,04,09,31,21.30
2016,06,04,09,32,21.30
2016,06,04,09,33,21.30
2016,06,04,09,34,21.30
2016,06,04,09,35,21.40
2016,06,04,09,36,21.40
2016,06,04,09,37,21.50
2016,06,04,09,38,21.50
2016,06,04,09,39,21.60
2016,06,04,09,40,21.60
2016,06,04,09,41,21.70
2016,06,04,09,42,21.70
2016,06,04,09,43,21.70
2016,06,04,09,44,21.70
2016,06,04,09,45,21.70
2016,06,04,09,46,21.70
2016,06,04,09,47,21.70
2016,06,04,09,48,21.70
2016,06,04,09,49,21.70
2016,06,04,09,50,21.70
2016,06,04,09,51,21.70
2016,06,04,09,52,21.60
2016,06,04,09,53,21.60
2016,06,04,09,54,21.70
2016,06,04,09,55,21.70
2016,06,04,09,56,21.70
2016,06,04,09,57,21.70
2016,06,04,09,58,21.70
2016,06,04,09,59,21.70
2016,06,04,10,00,21.80
2016,06,04,10,01,21.80
2016,06,04,10,02,21.80
2016,06,04,10,03,21.80
2016,06,04,10,04,21.80
2016,06,04,10,05,21.80
2016,06,04,10,06,21.70
2016,06,04,10,07,21.70
2016,06,04,10,08,21.70
2016,06,04,10,09,21.70
2016,06,04,10,10,21.70
2016,06,04,10,11,21.70
2016,06,04,10,12,21.70
2016,06,04,10,13,21.70
2016,06,04,10,14,21.70
2016,06,04,10,15,21.80
2016,06,04,10,16,21.80
2016,06,04,10,17,21.80
2016,06,04,10,18,21.80
2016,06,04,10,19,21.80
2016,06,04,10,20,21.80
2016,06,04,10,21,21.80
2016,06,04,10,22,21.80
2016,06,04,10,23,21.90
2016,06,04,10,24,21.90
2016,06,04,10,25,21.90
2016,06,04,10,26,21.90
2016,06,04,10,27,21.90
2016,06,04,10,28,21.90
2016,06,04,10,29,21.90
2016,06,04,10,30,21.90
2016,06,04,10,31,22.00
2016,06,04,10,32,22.00
2016,06,04,10,33,22.10
2016,06,04,10,34,22.10
2016,06,04,10,35,22.10
2016,06,04,10,36,22.00
2016,06,04,10,37,22.00
2016,06,04,10,38,22.00
2016,06,04,10,39,22.00
2016,06,04,10,40,22.10
2016,06,04,10,41,22.10
2016,06,04,10,42,22.10
2016,06,04,10,43,22.10
2016,06,04,10,44,22.20
2016,06,04,10,45,22.20
2016,06,04,10,46,22.20
2016,06,04,10,47,22.20
2016,06,04,10,48,22.20
2016,06,04,10,49,22.20
2016,06,04,10,50,22.20
2016,06,04,10,51,22.30
2016,06,04,10,52,22.30
2016,06,04,10,53,22.30
2016,06,04,10,54,22.40
2016,06,04,10,55,22.40
2016,06,04,10,56,22.40
2016,06,04,10,57,22.40
2016,06,04,10,58,22.40
2016,06,04,10,59,22.40
2016,06,04,11,00,22.40
2016,06,04,11,01,22.40
2016,06,04,11,02,22.40
2016,06,04,11,03,22.50
2016,06,04,11,04,22.60
2016,06,04,11,05,22.60
2016,06,04,11,06,22.60
2016,06,04,11,07,22.60
2016,06,04,11,08,22.70
2016,06,04,11,09,22.70
2016,06,04,11,10,22.80
2016,06,04,11,11,22.80
2016,06,04,11,12,22.80
2016,06,04,11,13,22.80
2016,06,04,11,14,22.80
2016,06,04,11,15,22.80
2016,06,04,11,16,22.80
2016,06,04,11,17,22.80
2016,06,04,11,18,22.80
2016,06,04,11,19,22.90
2016,06,04,11,20,22.90
2016,06,04,11,21,23.00
2016,06,04,11,22,23.10
2016,06,04,11,23,23.10
2016,06,04,11,24,23.10
2016,06,04,11,25,23.10
2016,06,04,11,26,23.10
2016,06,04,11,27,23.10
2016,06,04,11,28,23.10
2016,06,04,11,29,23.20
2016,06,04,11,30,23.20
2016,06,04,11,31,23.20
2016,06,04,11,32,23.30
2016,06,04,11,33,23.20
2016,06,04,11,34,23.20
2016,06,04,11,35,23.30
2016,06,04,11,36,23.30
2016,06,04,11,37,23.40
2016,06,04,11,38,23.40
2016,06,04,11,39,23.40
2016,06,04,11,40,23.40
2016,06,04,11,41,23.50
2016,06,04,11,42,23.60
2016,06,04,11,43,23.70
2016,06,04,11,44,23.70
2016,06,04,11,45,23.80
2016,06,04,11,46,23.80
2016,06,04,11,47,23.80
2016,06,04,11,48,23.80
2016,06,04,11,49,23.80
2016,06,04,11,50,23.80
2016,06,04,11,51,23.90
2016,06,04,11,52,23.90
2016,06,04,11,53,23.90
2016,06,04,11,54,23.80
2016,06,04,11,55,23.80
2016,06,04,11,56,23.90
2016,06,04,11,57,23.90
2016,06,04,11,58,23.90
2016,06,04,11,59,24.00
2016,06,04,12,00,24.10
2016,06,04,12,01,24.10
2016,06,04,12,02,24.10
2016,06,04,12,03,24.20
2016,06,04,12,04,24.20
2016,06,04,12,05,24.30
2016,06,04,12,06,24.30
2016,06,04,12,07,24.30
2016,06,04,12,08,24.30
2016,06,04,12,09,24.30
2016,06,04,12,10,24.40
2016,06,04,12,11,24.40
2016,06,04,12,12,24.40
2016,06,04,12,13,24.50
2016,06,04,12,14,24.60
2016,06,04,12,15,24.60
2016,06,04,12,16,24.60
2016,06,04,12,17,24.70
2016,06,04,12,18,24.70
2016,06,04,12,19,24.70
2016,06,04,12,20,24.70
2016,06,04,12,21,24.80
2016,06,04,12,22,24.80
2016,06,04,12,23,24.90
2016,06,04,12,24,24.80
2016,06,04,12,25,24.80
2016,06,04,12,26,24.70
2016,06,04,12,27,24.70
2016,06,04,12,28,24.70
2016,06,04,12,29,24.70
2016,06,04,12,30,24.70
2016,06,04,12,31,24.80
2016,06,04,12,32,24.80
2016,06,04,12,33,24.80
2016,06,04,12,34,24.80
2016,06,04,12,35,24.80
2016,06,04,12,36,24.80
2016,06,04,12,37,24.80
2016,06,04,12,38,24.80
2016,06,04,12,39,24.90
2016,06,04,12,40,24.90
2016,06,04,12,41,25.00
2016,06,04,12,42,25.10
2016,06,04,12,43,25.20
2016,06,04,12,44,25.20
2016,06,04,12,45,25.20
2016,06,04,12,46,25.30
2016,06,04,12,47,25.30
2016,06,04,12,48,25.30
2016,06,04,12,49,25.40
2016,06,04,12,50,25.30
2016,06,04,12,51,25.30
2016,06,04,12,52,25.30
2016,06,04,12,53,25.30
2016,06,04,12,54,25.30
2016,06,04,12,55,25.40
2016,06,04,12,56,25.40
2016,06,04,12,57,25.50
2016,06,04,12,58,25.50
2016,06,04,12,59,25.60
2016,06,04,13,00,25.60
2016,06,04,13,01,25.60
2016,06,04,13,02,25.60
2016,06,04,13,03,25.60
2016,06,04,13,04,25.60
2016,06,04,13,05,25.60
2016,06,04,13,06,25.50
2016,06,04,13,07,25.50
2016,06,04,13,08,25.50
2016,06,04,13,09,25.60
2016,06,04,13,10,25.60
2016,06,04,13,11,25.60
2016,06,04,13,12,25.60
2016,06,04,13,13,25.60
2016,06,04,13,14,25.50
2016,06,04,13,15,25.40
2016,06,04,13,16,25.40
2016,06,04,13,17,25.40
2016,06,04,13,18,25.50
2016,06,04,13,19,25.50
2016,06,04,13,20,25.60
2016,06,04,13,21,25.60
2016,06,04,13,22,25.60
2016,06,04,13,23,25.60
2016,06,04,13,24,25.70
2016,06,04,13,25,25.80
2016,06,04,13,26,25.80
2016,06,04,13,27,25.80
2016,06,04,13,28,25.80
2016,06,04,13,29,25.80
2016,06,04,13,30,25.80
2016,06,04,13,31,25.90
2016,06,04,13,32,25.90
2016,06,04,13,33,25.90
2016,06,04,13,34,25.80
2016,06,04,13,35,25.80
2016,06,04,13,36,25.80
2016,06,04,13,37,25.70
2016,06,04,13,38,25.70
2016,06,04,13,39,25.70
2016,06,04,13,40,25.70
2016,06,04,13,41,25.70
2016,06,04,13,42,25.80
2016,06,04,13,43,25.70
2016,06,04,13,44,25.70
2016,06,04,13,45,25.70
2016,06,04,13,46,25.70
2016,06,04,13,47,25.80
2016,06,04,13,48,25.80
2016,06,04,13,49,25.80
2016,06,04,13,50,25.80
2016,06,04,13,51,25.80
2016,06,04,13,52,25.90
2016,06,04,13,53,25.90
2016,06,04,13,54,26.00
2016,06,04,13,55,26.00
2016,06,04,13,56,26.10
2016,06,04,13,57,26.00
2016,06,04,13,58,26.00
2016,06,04,13,59,26.00
2016,06,04,14,00,26.10
2016,06,04,14,01,26.20
2016,06,04,14,02,26.30
2016,06,04,14,03,26.30
2016,06,04,14,04,26.40
2016,06,04,14,05,26.40
2016,06,04,14,06,26.40
2016,06,04,14,07,26.40
2016,06,04,14,08,26.40
2016,06,04,14,09,26.40
2016,06,04,14,10,26.40
2016,06,04,14,11,26.40
2016,06,04,14,12,26.40
2016,06,04,14,13,26.40
2016,06,04,14,14,26.30
2016,06,04,14,15,26.30
2016,06,04,14,16,26.30
2016,06,04,14,17,26.30
2016,06,04,14,18,26.30
2016,06,04,14,19,26.30
2016,06,04,14,20,26.40
2016,06,04,14,21,26.40
2016,06,04,14,22,26.40
2016,06,04,14,23,26.40
2016,06,04,14,24,26.40
2016,06,04,14,25,26.30
2016,06,04,14,26,26.30
2016,06,04,14,27,26.30
2016,06,04,14,28,26.30
2016,06,04,14,29,26.30
2016,06,04,14,30,26.40
2016,06,04,14,31,26.40
2016,06,04,14,32,26.40
2016,06,04,14,33,26.50
2016,06,04,14,34,26.60
2016,06,04,14,35,26.60
2016,06,04,14,36,26.60
2016,06,04,14,37,26.60
2016,06,04,14,38,26.60
2016,06,04,14,39,26.60
2016,06,04,14,40,26.60
2016,06,04,14,41,26.50
2016,06,04,14,42,26.50
2016,06,04,14,43,26.40
2016,06,04,14,44,26.50
2016,06,04,14,45,26.40
2016,06,04,14,46,26.40
2016,06,04,14,47,26.40
2016,06,04,14,48,26.40
2016,06,04,14,49,26.40
2016,06,04,14,50,26.40
2016,06,04,14,51,26.40
2016,06,04,14,52,26.50
2016,06,04,14,53,26.60
2016,06,04,14,54,26.60
2016,06,04,14,55,26.70
2016,06,04,14,56,26.70
2016,06,04,14,57,26.70
2016,06,04,14,58,26.70
2016,06,04,14,59,26.70
2016,06,04,15,00,26.70
2016,06,04,15,01,26.70
2016,06,04,15,02,26.70
2016,06,04,15,03,26.60
2016,06,04,15,04,26.60
2016,06,04,15,05,26.70
2016,06,04,15,06,26.60
2016,06,04,15,07,26.60
2016,06,04,15,08,26.70
2016,06,04,15,09,26.70
2016,06,04,15,10,26.70
2016,06,04,15,11,26.70
2016,06,04,15,12,26.70
2016,06,04,15,13,26.80
2016,06,04,15,14,26.80
2016,06,04,15,15,26.90
2016,06,04,15,16,26.90
2016,06,04,15,17,27.00
2016,06,04,15,18,27.00
2016,06,04,15,19,27.10
2016,06,04,15,20,27.10
2016,06,04,15,21,27.10
2016,06,04,15,22,27.20
2016,06,04,15,23,27.20
2016,06,04,15,24,27.20
2016,06,04,15,25,27.20
2016,06,04,15,26,27.30
2016,06,04,15,27,27.30
2016,06,04,15,28,27.30
2016,06,04,15,29,27.30
2016,06,04,15,30,27.20
2016,06,04,15,31,27.30
2016,06,04,15,32,27.30
2016,06,04,15,33,27.30
2016,06,04,15,34,27.20
2016,06,04,15,35,27.20
2016,06,04,15,36,27.10
2016,06,04,15,37,27.10
2016,06,04,15,38,27.10
2016,06,04,15,39,27.10
2016,06,04,15,40,27.10
2016,06,04,15,41,27.10
2016,06,04,15,42,27.10
2016,06,04,15,43,27.10
2016,06,04,15,44,27.10
2016,06,04,15,45,27.20
2016,06,04,15,46,27.20
2016,06,04,15,47,27.20
2016,06,04,15,48,27.20
2016,06,04,15,49,27.20
2016,06,04,15,50,27.10
2016,06,04,15,51,27.10
2016,06,04,15,52,27.10
2016,06,04,15,53,27.00
2016,06,04,15,54,27.00
2016,06,04,15,55,27.00
2016,06,04,15,56,26.90
2016,06,04,15,57,26.90
2016,06,04,15,58,27.00
2016,06,04,15,59,27.00
2016,06,04,16,00,26.90
2016,06,04,16,01,26.90
2016,06,04,16,02,26.90
2016,06,04,16,03,26.90
2016,06,04,16,04,26.90
2016,06,04,16,05,26.90
2016,06,04,16,06,26.90
2016,06,04,16,07,26.90
2016,06,04,16,08,26.90
2016,06,04,16,09,26.90
2016,06,04,16,10,26.80
2016,06,04,16,11,26.80
2016,06,04,16,12,26.90
2016,06,04,16,13,26.90
2016,06,04,16,14,26.90
2016,06,04,16,15,26.90
2016,06,04,16,16,26.90
2016,06,04,16,17,26.90
2016,06,04,16,18,26.90
2016,06,04,16,19,26.90
2016,06,04,16,20,26.90
2016,06,04,16,21,26.80
2016,06,04,16,22,26.80
2016,06,04,16,23,26.80
2016,06,04,16,24,26.80
2016,06,04,16,25,26.80
2016,06,04,16,26,26.80
2016,06,04,16,27,26.90
2016,06,04,16,28,26.90
2016,06,04,16,29,26.90
2016,06,04,16,30,26.90
2016,06,04,16,31,26.90
2016,06,04,16,32,26.90
2016,06,04,16,33,26.90
2016,06,04,16,34,26.90
2016,06,04,16,35,26.80
2016,06,04,16,36,26.80
2016,06,04,16,37,26.90
2016,06,04,16,38,26.90
2016,06,04,16,39,26.90
2016,06,04,16,40,26.90
2016,06,04,16,41,26.90
2016,06,04,16,42,26.90
2016,06,04,16,43,26.90
2016,06,04,16,44,27.00
2016,06,04,16,45,27.00
2016,06,04,16,46,27.00
2016,06,04,16,47,27.00
2016,06,04,16,48,27.00
2016,06,04,16,49,27.00
2016,06,04,16,50,27.00
2016,06,04,16,51,27.00
2016,06,04,16,52,27.00
2016,06,04,16,53,27.00
2016,06,04,16,54,27.00
2016,06,04,16,55,27.10
2016,06,04,16,56,27.10
2016,06,04,16,57,27.10
2016,06,04,16,58,27.10
2016,06,04,16,59,27.10
2016,06,04,17,00,27.10
2016,06,04,17,01,27.10
2016,06,04,17,02,27.20
2016,06,04,17,03,27.20
2016,06,04,17,04,27.20
2016,06,04,17,05,27.20
2016,06,04,17,06,27.20
2016,06,04,17,07,27.20
2016,06,04,17,08,27.20
2016,06,04,17,09,27.30
2016,06,04,17,10,27.30
2016,06,04,17,11,27.30
2016,06,04,17,12,27.30
2016,06,04,17,13,27.40
2016,06,04,17,14,27.40
2016,06,04,17,15,27.40
2016,06,04,17,16,27.40
2016,06,04,17,17,27.40
2016,06,04,17,18,27.40
2016,06,04,17,19,27.40